2021-105A (49464 NORAD) Tracking and Keplerian Element Data

This shows tracking and keplerian element data for the satellite.

Feedback or suggestion? Click here.




ElementValue
Catalog49464
Name2021-105A
Epoch Orbit4
Epoch Day320.66683499
Epoch Year2021
RAAN145.295
Inclination75
Eccentricity4.62E-05
Argument of Perigee265.5166
Mean Anonmoly94.5921
Mean Motion14.66435202
Decay Rate0.00091804
L11 49464U 21105A 21320.66683499 .00091804 00000+0 16367-1 0 9990
L22 49464 75.0000 145.2950 0000462 265.5166 94.5921 14.66435202 47

Live tracking and technical data element details for 2021-105A (NORAD 49464). 2021-105A can be tracked NOW for your location showing map with azimuth and elevation plus other details from your city location.

Track the satellite on the map from your city or location and see movement details for azimuth, elevation, latitude, longitude, range, height, and movement on the map or in text.







IsCatalogInMostPopularTable: catalog: 49464, numindb: 4
Update: records affected: 1



GetName: 49464 2021-105A

Hit Count: updated at: Wed, 08 Dec 2021 15:28:53 GMT